Skip Page Navigation
NASA JPL Caltech
NASA Logo - Jet Propulsion Laboratory + View the NASA Portal
+ Center for Near-Earth Object Studies
JPL Home Earth Solar System Stars & Galaxies Technology
JPL Solar System Dynamics
BODIES ORBITS EPHEMERIDES TOOLS PHYSICAL DATA DISCOVERY FAQ SITE MAP
JPL Small-Body Database Browser
Search: [ help ]  
15468 Mondriaan (1999 AT31)
Classification: Main-belt Asteroid          SPK-ID: 2015468
Ephemeris | Orbit Diagram | Orbital Elements | Mission Design | Physical Parameters | Discovery Circumstances | Close-Approach Data ]

[ show orbit diagram ]
Orbital Elements at Epoch 2459000.5 (2020-May-31.0) TDB
Reference: JPL 30 (heliocentric ecliptic J2000)
 Element Value Uncertainty (1-sigma)   Units 
e .01651167059820516 3.549e-08  
a 2.90952864222343 1.3776e-08 au
q 2.861487463686994 1.0696e-07 au
i 1.814104287100649 3.8982e-06 deg
node 356.2260112504055 0.00012292 deg
peri 307.4934817576712 0.00017145 deg
M 305.4179044314332 0.00012018 deg
tp 2459275.340093055460
(2021-Mar-01.84009306)
0.00060522 TDB
period 1812.726911074212
4.96
1.2874e-05
3.525e-08
d
yr
n .1985958269834843 1.4104e-09 deg/d
Q 2.957569820759867 1.4003e-08 au
  Orbit Determination Parameters
   # obs. used (total)      1879  
   data-arc span      13735 days (37.60 yr)  
   first obs. used      1982-11-09  
   last obs. used      2020-06-17  
   planetary ephem.      DE431  
   SB-pert. ephem.      SB431-N16  
   condition code      0  
   norm. resid. RMS      .53097  
   source      ORB  
   producer      Otto Matic  
   solution date      2020-Jun-23 17:50:14  

Additional Information
 Earth MOID = 1.84653 au 
 Jupiter MOID = 2.06305 au 
 T_jup = 3.283 
[ show covariance matrix ]

Ephemeris | Orbit Diagram | Orbital Elements | Mission Design | Physical Parameters | Discovery Circumstances | Close-Approach Data ]

Physical Parameter Table
Parameter Symbol Value Units Sigma Reference Notes
absolute magnitude H 13.7   n/a MPO384888  
diameter diameter 5.335 km 0.182 urn:nasa:pds:neowise_diameters_albedos::2.0[mainbelt] (http://adsabs.harvard.edu/abs/2011ApJ...741...68M)  
rotation period rot_per 2.64 h n/a LCDB (Rev. 2019-August); Warner et al., 2009 Result based on less than full coverage, so that the period may be wrong by 30 percent or so.
Published Reference List:
[Chang, C.K.; Ip, W.-H.; Lin, H.-W.; Cheng, Y.C.; et al. (2015) Astrophys. J. Supp. Ser. 219, A27.]
geometric albedo albedo 0.247   0.034 urn:nasa:pds:neowise_diameters_albedos::2.0[mainbelt] (http://adsabs.harvard.edu/abs/2011ApJ...741...68M)  

15468 Mondriaan           Discovered 1999 Jan. 14 by Spacewatch at Kitt Peak.
Pieter C. Mondriaan (1872-1944) was a Dutch Neo-plasticist painter. He developed Neo-plasticism painting, which consisted of a grid of vertical and horizontal black lines and the use of three primary colours. Name suggested and citation provided by W. A. Fröger.
NOTE: some special characters may not display properly (any characters within {} are an attempt to place the proper accent above a character)
Reference: MPC batch dated 2014-01-16Last Updated: 2014-01-21

[ show close-approach data ]
Alternate Designations
 1999 AT31 = 1982 VV7 = 1991 PN12 = 1994 FA1 
Ephemeris | Orbit Diagram | Orbital Elements | Mission Design | Physical Parameters | Discovery Circumstances | Close-Approach Data ]
ABOUT SSD CREDITS/AWARDS PRIVACY/COPYRIGHT GLOSSARY LINKS
FirstGov 2020-Oct-21 20:47 UT
(server date/time)  
NASA Home Page
Site Manager:   Ryan S. Park
Webmaster  Alan B. Chamberlin